Total_Precipitation_Accumulation
0.00 0.00 0.00 0.00 0.00 0.00 0.00 0.00 0.00 0.00 0.00 0.00 0.00 0.00 0.00 0.00 0.00 0.00 0.00 0.00 0.00 0.00 0.00 0.00 0.00 0.00 0.00 0.00 0.00 0.00 0.00 0.00 0.00 0.00 0.00 0.00 0.00 0.00 0.00 0.00 0.00 0.00 0.00 0.00 0.00
0.00 0.00 0.00 0.00 0.00 0.00 0.00 0.00 0.00 0.00 0.00 0.00 0.00 0.00 0.00 0.00 0.00 0.00 0.00 0.00 0.00 0.00 0.00 0.00 0.00 0.00 0.00 0.00 0.00 0.00 0.00 0.00 0.00 0.00 0.00 0.00 0.00 0.00 0.00 0.00 0.00 0.00 0.00 0.00 0.00
0.00 0.00 0.00 0.00 0.00 0.00 0.00 0.00 0.00 0.00 0.00 0.00 0.00 0.00 0.00 0.00 0.00 0.00 0.00 0.00 0.00 0.00 0.00 0.00 0.00 0.00 0.00 0.00 0.00 0.00 0.00 0.00 0.00 0.00 0.00 0.00 0.00 0.00 0.00 0.00 0.00 0.00 0.00 0.00 0.00
0.00 0.00 0.00 0.00 0.00 0.00 0.00 0.00 0.00 0.00 0.00 0.00 0.00 0.00 0.00 0.00 0.00 0.00 0.00 0.00 0.00 0.00 0.00 0.00 0.00 0.00 0.00 0.00 0.00 0.00 0.00 0.00 0.00 0.00 0.00 0.00 0.00 0.00 0.00 0.00 0.00 0.00 0.00 0.00 0.00
0.00 0.00 0.00 0.00 0.00 0.00 0.00 0.00 0.00 0.00 0.00 0.00 0.00 0.00 0.00 0.00 0.00 0.00 0.00 0.00 0.00 0.00 0.00 0.00 0.00 0.00 0.00 0.00 0.00 0.00 0.00 0.00 0.00 0.00 0.00 0.00 0.00 0.00 0.00 0.00 0.00 0.00 0.00 0.00 0.00
0.00 0.00 0.00 0.00 0.00 0.00 0.00 0.00 0.00 0.00 0.00 0.00 0.00 0.00 0.00 0.00 0.00 0.00 0.00 0.00 0.00 0.00 0.00 0.00 0.00 0.00 0.00 0.00 0.00 0.00 0.00 0.00 0.00 0.00 0.00 0.00 0.00 0.00 0.00 0.00 0.00 0.00 0.00 0.00 0.00
0.00 0.00 0.00 0.00 0.00 0.00 0.00 0.00 0.00 0.00 0.00 0.00 0.00 0.00 0.00 0.00 0.00 0.00 0.00 0.00 0.00 0.00 0.00 0.00 0.00 0.00 0.00 0.00 0.00 0.00 0.00 0.00 0.00 0.00 0.00 0.00 0.00 0.00 0.00 0.00 0.00 0.00 0.00 0.00 0.00
0.00 0.00 0.00 0.00 0.00 0.00 0.00 0.00 0.00 0.00 0.00 0.00 0.00 0.00 0.00 0.00 0.00 0.00 0.00 0.00 0.00 0.00 0.00 0.00 0.00 0.00 0.00 0.00 0.00 0.00 0.00 0.00 0.00 0.00 0.00 0.00 0.00 0.00 0.00 0.00 0.00 0.00 0.00 0.00 0.00
0.00 0.00 0.00 0.00 0.00 0.00 0.00 0.00 0.00 0.00 0.00 0.00 0.00 0.00 0.00 0.00 0.00 0.00 0.00 0.00 0.00 0.00 0.00 0.00 0.00 0.00 0.00 0.00 0.00 0.00 0.00 0.00 0.00 0.00 0.00 0.00 0.00 0.00 0.00 0.00 0.00 0.00 0.00 0.00 0.00
0.00 0.00 0.00 0.00 0.00 0.00 0.00 0.00 0.00 0.00 0.00 0.00 0.00 0.00 0.00 0.00 0.00 0.00 0.00 0.00 0.00 0.00 0.00 0.00 0.00 0.00 0.00 0.00 0.00 0.00 0.00 0.00 0.00 0.00 0.00 0.00 0.00 0.00 0.00 0.00 0.00 0.00 0.00 0.00 0.00
0.00 0.00 0.00 0.00 0.00 0.00 0.00 0.00 0.00 0.00 0.00 0.00 0.00 0.00 0.00 0.00 0.00 0.00 0.00 0.00 0.00 0.00 0.00 0.00 0.00 0.00 0.00 0.00 0.00 0.00 0.00 0.00 0.00 0.00 0.00 0.00 0.00 0.00 0.00 0.00 0.00 0.00 0.00 0.00 0.00
0.00 0.00 0.00 0.00 0.00 0.00 0.00 0.00 0.00 0.00 0.00 0.00 0.00 0.00 0.00 0.00 0.00 0.00 0.00 0.00 0.00 0.00 0.00 0.00 0.00 0.00 0.00 0.00 0.00 0.00 0.00 0.00 0.00 0.00 0.00 0.00 0.00 0.00 0.00 0.00 0.00 0.00 0.00 0.00 0.00
0.00 0.00 0.00 0.00 0.00 0.00 0.00 0.00 0.00 0.00 0.00 0.00 0.00 0.00 0.00 0.00 0.00 0.00 0.00 0.00 0.00 0.00 0.00 0.00 0.00 0.00 0.00 0.00 0.00 0.00 0.00 0.00 0.00 0.00 0.00 0.00 0.00 0.00 0.00 0.00 0.00 0.00 0.00 0.00 0.00
0.00 0.00 0.00 0.00 0.00 0.00 0.00 0.00 0.00 0.00 0.00 0.00 0.00 0.00 0.00 0.00 0.00 0.00 0.00 0.00 0.00 0.00 0.00 0.00 0.00 0.00 0.00 0.00 0.00 0.00 0.00 0.00 0.00 0.00 0.00 0.00 0.00 0.00 0.00 0.00 0.00 0.00 0.00 0.00 0.00
0.00 0.00 0.00 0.01 0.00 0.00 0.00 0.00 0.00 0.00 0.00 0.00 0.00 0.00 0.00 0.00 0.00 0.00 0.00 0.00 0.00 0.00 0.00 0.00 0.00 0.00 0.00 0.00 0.00 0.00 0.00 0.00 0.00 0.00 0.00 0.00 0.00 0.00 0.00 0.00 0.00 0.00 0.00 0.00 0.00
0.00 0.00 0.02 0.00 0.00 0.00 0.00 0.00 0.00 0.01 0.00 0.00 0.00 0.00 0.00 0.00 0.00 0.00 0.00 0.00 0.00 0.00 0.00 0.00 0.00 0.00 0.00 0.00 0.00 0.00 0.00 0.02 0.01 0.01 0.01 0.00 0.00 0.00 0.00 0.00 0.00 0.00 0.00 0.00 0.00
0.01 0.01 0.01 0.00 0.00 0.00 0.00 0.00 0.01 0.00 0.00 0.00 0.00 0.00 0.00 0.00 0.00 0.00 0.00 0.00 0.00 0.02 0.02 0.01 0.00 0.00 0.00 0.01 0.01 0.01 0.06 0.15 0.11 0.04 0.01 0.00 0.00 0.00 0.00 0.03 0.05 0.04 0.01 0.01 0.00
0.01 0.01 0.00 0.00 0.00 0.00 0.01 0.02 0.01 0.00 0.00 0.00 0.00 0.00 0.00 0.01 0.01 0.01 0.02 0.00 0.00 0.02 0.08 0.05 0.03 0.01 0.05 0.03 0.03 0.02 0.11 0.16 0.12 0.09 0.03 0.00 0.01 0.00 0.00 0.01 0.18 0.14 0.04 0.01 0.01
0.01 0.00 0.00 0.00 0.00 0.00 0.06 0.09 0.00 0.00 0.00 0.00 0.00 0.00 0.02 0.07 0.08 0.03 0.04 0.04 0.02 0.09 0.18 0.08 0.04 0.01 0.02 0.03 0.06 0.15 0.12 0.07 0.30 0.19 0.12 0.06 0.02 0.04 0.02 0.08 0.08 0.05 0.01 0.01 0.00
0.00 0.00 0.00 0.00 0.00 0.01 0.08 0.03 0.00 0.00 0.00 0.00 0.01 0.05 0.08 0.05 0.08 0.10 0.05 0.17 0.12 0.20 0.14 0.15 0.20 0.05 0.03 0.07 0.08 0.16 0.18 0.31 0.35 0.29 0.12 0.14 0.05 0.42 0.35 0.25 0.39 0.04 0.00 0.00 0.00
0.01 0.01 0.00 0.00 0.01 0.08 0.06 0.01 0.00 0.00 0.00 0.00 0.01 0.07 0.08 0.10 0.10 0.13 0.16 0.20 0.43 0.17 0.10 0.10 0.21 0.14 0.15 0.12 0.08 0.15 0.30 0.26 0.26 0.11 0.16 0.21 0.48 0.61 0.78 0.16 0.15 0.01 0.00 0.00 0.00
0.02 0.02 0.01 0.04 0.06 0.05 0.02 0.00 0.00 0.00 0.00 0.00 0.00 0.03 0.12 0.12 0.13 0.18 0.24 0.27 0.31 0.18 0.08 0.09 0.38 0.22 0.15 0.07 0.03 0.11 0.14 0.19 0.30 0.21 0.10 0.19 0.75 0.54 0.28 0.19 0.10 0.00 0.00 0.00 0.00
0.03 0.01 0.00 0.05 0.31 0.12 0.03 0.01 0.01 0.00 0.01 0.01 0.02 0.03 0.07 0.10 0.19 0.13 0.25 0.29 0.49 0.30 0.13 0.32 0.37 0.41 0.34 0.20 0.12 0.15 0.13 0.19 0.34 0.32 0.23 0.24 0.58 0.67 0.21 0.04 0.00 0.00 0.00 0.00 0.00
0.08 0.04 0.02 0.02 0.06 0.17 0.13 0.05 0.01 0.00 0.00 0.03 0.02 0.04 0.09 0.12 0.15 0.16 0.21 0.40 0.73 0.51 0.23 0.60 0.35 0.52 0.29 0.18 0.24 0.29 0.28 0.35 0.43 0.38 0.13 0.20 0.49 0.58 0.33 0.08 0.00 0.00 0.00 0.01 0.02
0.07 0.05 0.05 0.12 0.11 0.20 0.29 0.21 0.08 0.06 0.05 0.02 0.06 0.12 0.16 0.15 0.09 0.08 0.28 0.70 0.93 0.68 0.36 0.43 0.22 0.57 0.46 0.13 0.12 0.13 0.13 0.26 0.41 0.35 0.21 0.22 0.19 0.35 0.69 0.31 0.07 0.03 0.01 0.05 0.04
0.08 0.03 0.06 0.11 0.22 0.46 0.34 0.29 0.25 0.22 0.27 0.15 0.17 0.08 0.07 0.10 0.08 0.16 0.27 0.34 0.59 0.47 0.47 0.47 0.27 0.35 0.67 0.30 0.18 0.18 0.20 0.18 0.25 0.13 0.09 0.03 0.13 0.23 0.51 0.53 0.30 0.15 0.04 0.09 0.09
0.08 0.04 0.10 0.06 0.03 0.09 0.20 0.31 0.46 0.68 0.32 0.11 0.25 0.12 0.06 0.11 0.07 0.02 0.09 0.07 0.11 0.28 0.45 0.40 0.47 0.14 0.20 0.09 0.07 0.12 0.06 0.07 0.04 0.04 0.02 0.04 0.06 0.26 0.51 0.64 0.51 0.34 0.15 0.12 0.13